Find Mohammed VI-A

NORAD ID: 43005 Int'l Des: 2017-070 Owner: RMAF Country: MA operational
LEOCIRCULARRETROGRADESSO

Current View

Loading 3D Globe...

About Mohammed VI-A

Description loading...

Upcoming Passes

Passes for default location (London). Set your location on the main map for personalized predictions.

Altitude History

Loading altitude history...

Two-Line Element Set

1 43005U 17070A 26150.93658972 .00000523 00000-0 81199-4 0 9992
2 43005 97.9566 223.5045 0001776 98.6147 261.5265 14.77112055461431
Epoch: May 30, 2026 • Age: 9 hours

Current Status

Altitude 665.3 km
Velocity 7.52 km/s
Sub-Earth Point -68.53°S, 18.35°E
Launch Date Nov 8, 2017
Age 8.5 years
Type other

Technical Details

Classification Payload
Mass 1110.00 kg
Dry Mass 900.00 kg
Total Mass 1110.00 kg
Length 4.00 m
Diameter 2.00 m
Span 8.00 m
Shape Hex-cyl+3 panels
Manufacturer ADST
Bus Type Astrosat-1000
Phase Status In Orbit
Owner/State RMAF/MA

Most Searched